Vertical_Velocity
2 1 1 1 0 0 0 0 -0 -0 0 0 -0 -0 -1 0 0 -1 -1 -1 -1 -1 -2 -1 -1 -1 -1 -3 -1 2 4 5 2 0 -1 -2 -1 1 4 8 10 13 15 16 15 14 13 10 10 9 7 5 6 7 8 10 11 11 9 10 12 12 12 11 9 9 8 5 2
1 2 2 1 1 1 1 0 0 0 0 -0 -0 -0 -0 1 1 1 1 1 0 -0 -0 -0 -1 -0 -1 -2 -0 2 4 4 4 3 1 -1 -2 -3 -4 -5 -4 -1 2 5 6 9 11 13 14 12 8 3 2 1 1 3 6 7 8 7 8 8 7 6 2 2 4 7 8
-0 0 1 1 0 -0 -0 -0 -0 0 0 0 0 0 0 1 2 2 2 2 1 1 1 1 0 -0 -1 -2 0 2 2 2 2 3 4 3 1 -1 -2 -2 -2 -2 -3 -5 -6 -4 -1 3 6 7 6 2 -2 -4 -5 -5 -2 1 2 2 4 6 6 4 1 2 5 7 9
-1 -0 0 -0 -0 -0 -1 -0 0 0 1 1 1 2 2 2 2 3 3 2 3 3 3 3 2 1 -0 -1 1 2 2 2 2 3 4 5 3 1 0 1 1 1 -0 -2 -2 -3 -3 -3 0 3 6 6 5 1 -2 -5 -4 -3 -3 -3 -1 2 3 3 2 3 5 6 5
-1 -1 -1 -1 0 1 1 1 1 2 2 2 2 3 3 4 3 3 3 4 4 4 4 3 3 2 1 1 2 2 2 1 1 2 3 3 2 2 1 1 2 1 1 1 1 2 1 1 3 7 11 14 17 18 17 14 13 8 2 -2 -1 -1 -0 0 2 3 4 3 3
-1 -1 -1 -0 0 1 2 2 3 3 3 3 3 4 4 4 4 3 3 4 4 3 3 3 2 2 3 5 6 4 3 3 3 3 3 3 3 3 3 4 3 2 1 0 0 -0 -0 0 2 3 3 2 10 17 22 21 22 19 13 7 3 0 -1 -2 -2 -1 0 -1 -1
1 1 1 2 2 2 3 3 3 3 3 3 3 4 4 4 3 3 3 4 4 3 1 0 0 1 4 8 8 6 4 5 6 7 6 5 4 4 4 4 3 2 1 0 0 0 1 2 4 3 3 1 -3 -8 -10 -11 -4 2 9 14 13 11 9 5 5 4 2 -3 -3
3 2 2 2 2 2 3 3 3 2 2 1 1 2 3 4 4 4 5 4 2 1 0 -2 -2 0 4 8 7 4 3 4 7 8 7 6 5 4 4 3 2 1 1 1 2 3 4 6 6 6 5 5 4 2 -0 -2 -2 0 6 17 25 33 38 37 30 25 19 14 8
1 1 1 1 1 1 1 1 2 2 2 2 3 3 3 4 5 5 3 1 1 1 0 -3 -2 2 5 7 4 2 1 4 6 7 7 6 5 4 2 1 2 2 3 3 4 4 4 5 6 6 5 4 4 3 2 1 2 6 9 9 5 4 7 13 17 21 24 27 27
-1 -2 -2 -2 -1 -0 -0 -1 0 1 1 2 3 3 4 4 4 2 0 -0 2 3 2 -2 -0 2 3 1 -0 -1 1 4 6 6 6 5 5 4 2 1 2 3 4 5 5 5 5 6 5 4 3 3 3 3 3 4 4 6 7 5 3 3 2 1 0 1 5 10 15
-2 -3 -3 -3 -1 -0 -0 -1 -1 -1 -1 -0 0 1 2 3 3 2 2 3 4 3 1 -2 -2 -3 -5 -6 -4 -1 3 6 5 5 4 4 4 3 2 1 2 3 4 5 5 4 5 7 7 6 5 3 4 4 5 5 4 5 6 6 6 6 6 7 6 6 6 6 4
-2 -2 -2 -1 -0 -0 -1 -1 -1 -2 -2 -1 -1 1 2 4 5 6 5 4 1 -2 -5 -8 -10 -11 -11 -8 -2 3 6 6 4 3 2 2 3 2 2 1 1 2 2 4 4 4 5 6 7 7 7 5 5 5 5 4 4 4 4 5 6 6 6 7 6 6 7 7 5
-1 -1 -1 -0 -0 -1 -2 -2 -2 -2 -1 0 2 3 5 6 5 3 1 -3 -5 -8 -10 -12 -12 -11 -7 -0 4 6 5 3 1 -0 -1 -0 1 2 1 -0 -1 -1 0 2 3 3 4 5 6 6 6 6 6 5 4 4 5 5 4 4 5 5 6 6 6 6 6 5 6
-2 -1 -0 -0 -1 -2 -3 -3 -3 -1 1 3 4 4 3 2 -1 -4 -7 -8 -8 -8 -8 -9 -7 -3 2 6 6 5 2 -2 -3 -3 -2 -1 0 0 -1 -2 -3 -3 -2 0 1 2 3 4 4 4 3 4 4 4 4 5 4 4 4 3 4 4 4 4 5 5 6 6 7
-4 -2 -1 -0 -1 -1 -2 -3 -2 0 2 3 3 1 -1 -3 -5 -6 -6 -6 -5 -5 -5 -5 -2 2 5 7 6 3 0 -3 -4 -4 -3 -2 -2 -1 -2 -3 -5 -5 -3 -1 -0 1 1 2 2 2 2 2 2 3 3 3 3 3 3 2 2 2 1 1 3 4 4 5 6
-2 -2 -1 -0 0 0 0 0 1 2 2 2 1 -1 -2 -3 -3 -3 -3 -3 -4 -4 -4 -2 1 3 4 5 5 3 1 -1 -2 -3 -3 -3 -3 -2 -3 -4 -5 -4 -3 -2 -2 -1 -1 -0 0 1 1 1 2 2 1 1 2 2 2 1 1 0 -0 1 1 2 3 4 4
0 -0 -0 0 0 1 2 2 3 2 2 1 -0 -2 -3 -3 -2 -2 -2 -3 -5 -4 -2 -1 0 1 2 2 3 2 1 -1 -3 -4 -4 -4 -4 -4 -4 -4 -4 -3 -2 -2 -3 -3 -3 -2 -2 -1 -1 0 0 -0 -1 -1 0 0 0 0 -0 -1 -1 0 0 1 1 2 3
2 2 1 1 1 1 2 2 3 3 2 1 -1 -2 -2 -2 -1 -1 -3 -5 -5 -4 -2 -0 -0 0 0 0 0 -0 -1 -3 -4 -5 -5 -5 -4 -4 -4 -4 -3 -3 -2 -2 -3 -3 -3 -3 -4 -3 -3 -2 -1 -2 -2 -1 -1 -1 -2 -1 -2 -1 -1 -1 -1 -1 -0 0 1
2 3 3 2 2 2 2 2 3 3 4 3 2 1 -0 -0 -0 -2 -4 -6 -5 -3 -1 -0 -0 -0 -0 -1 -1 -2 -3 -5 -5 -5 -5 -4 -4 -4 -4 -4 -3 -3 -2 -2 -3 -3 -4 -4 -4 -4 -3 -3 -3 -2 -2 -2 -2 -3 -3 -3 -3 -3 -2 -2 -2 -2 -2 -1 0
2 2 3 3 3 3 4 3 4 5 6 6 4 3 2 1 -0 -3 -4 -5 -3 -1 0 1 0 0 0 -0 -2 -3 -4 -5 -5 -6 -5 -4 -3 -3 -3 -3 -2 -2 -2 -2 -3 -3 -3 -3 -3 -3 -3 -3 -3 -3 -3 -3 -3 -4 -4 -4 -4 -4 -3 -3 -3 -4 -3 -2 -1
1 1 2 3 3 4 5 5 6 7 7 6 4 2 1 0 -1 -3 -4 -2 -1 -0 0 0 0 -0 -1 -2 -2 -3 -4 -5 -5 -5 -5 -4 -3 -3 -3 -3 -4 -4 -4 -4 -3 -2 -1 -1 -1 -2 -2 -3 -3 -3 -4 -4 -4 -4 -4 -5 -5 -4 -4 -4 -5 -5 -5 -4 -3
0 1 1 2 2 3 4 5 5 5 4 2 -1 -2 -2 -2 -1 -1 -1 -1 -0 -1 -1 -2 -3 -3 -3 -3 -3 -3 -3 -3 -3 -3 -3 -4 -4 -4 -5 -6 -6 -6 -6 -5 -3 -2 -1 -1 -1 -2 -2 -2 -2 -2 -3 -4 -4 -4 -4 -5 -4 -4 -5 -5 -6 -6 -6 -6 -4
0 1 1 1 2 3 3 3 3 2 -0 -3 -4 -4 -3 -2 -1 0 1 2 2 1 -1 -2 -3 -3 -3 -1 -0 0 0 0 0 0 -0 -1 -2 -3 -5 -6 -7 -7 -7 -5 -4 -2 -1 -1 -1 -1 -1 -2 -2 -2 -2 -1 -1 -1 -2 -2 -2 -2 -2 -3 -4 -5 -6 -5 -3
1 1 2 2 2 2 2 2 1 0 -1 -2 -2 -1 -0 1 2 2 3 3 3 2 2 1 0 0 2 4 4 3 2 1 1 1 1 1 1 -0 -2 -4 -5 -5 -5 -4 -3 -2 -1 -1 -0 0 0 -0 0 -0 -1 -1 -1 -1 -2 -1 -1 -1 -1 -1 -3 -5 -5 -3 -2
2 2 2 2 2 2 2 1 1 0 0 1 1 2 2 3 3 4 4 4 3 3 3 3 3 3 5 6 6 4 2 0 0 0 1 1 1 -1 -2 -3 -3 -3 -2 -0 1 2 2 2 1 1 1 1 1 0 0 0 -1 -2 -3 -3 -3 -3 -3 -3 -4 -5 -6 -4 -4
1 1 0 1 1 1 1 0 0 1 1 2 2 2 2 3 4 4 4 3 3 4 4 4 4 4 5 6 5 3 1 0 0 0 0 -0 -0 -1 -1 -2 -2 -1 0 3 4 4 4 3 2 2 1 0 -0 -1 -2 -2 -2 -2 -3 -3 -3 -4 -4 -5 -5 -5 -4 -3 -3
0 -0 -1 0 0 -0 -0 0 0 0 0 0 0 1 1 2 3 3 2 2 2 3 3 3 3 3 3 3 2 1 -0 -0 0 -0 -0 -0 -0 -0 -0 -1 -1 -0 1 3 4 3 3 2 1 0 -0 -1 -1 -1 -2 -2 -2 -2 -2 -2 -2 -2 -2 -3 -4 -4 -3 -1 1
0 -0 -1 -1 -1 -1 -0 -0 -1 -1 -1 -1 -1 -0 0 1 1 1 1 1 1 1 1 0 1 1 1 1 -0 -1 -1 -1 -1 -1 -0 0 0 1 0 -0 -1 0 1 2 2 1 1 1 0 -1 -1 -1 -1 -1 -1 -1 -1 -1 -2 -2 -2 -1 -0 0 -1 -2 -2 -1 1
1 0 -1 -2 -1 -1 -1 -1 -1 -1 -1 -1 -0 0 0 0 0 0 -0 -1 -2 -2 -3 -2 -1 -1 -1 -1 -1 -1 -1 -2 -2 -1 -1 -0 -0 -0 -0 -1 -1 -1 0 0 -0 -0 0 1 0 -0 -1 -1 -1 -1 -1 -1 -1 -0 -0 -1 -1 -1 -0 -0 0 0 0 -1 0
1 0 -0 -1 -1 -1 -1 -1 -1 -0 0 1 1 1 1 0 -0 -1 -1 -2 -3 -3 -2 -1 -1 -2 -2 -2 -2 -2 -2 -2 -2 -1 -1 -1 -1 -1 -1 -2 -2 -1 -1 -1 -1 -1 -1 -0 0 -0 -1 -1 -1 -1 -1 -1 -1 -1 -0 -0 0 0 0 -0 -0 -1 -1 -1 -1
0 0 -0 -1 -1 -1 -1 -0 -0 0 1 1 1 1 0 -0 -1 -1 -1 -2 -1 -1 -1 -1 -1 -1 -2 -2 -2 -2 -2 -2 -2 -2 -2 -2 -2 -2 -1 -2 -2 -2 -2 -1 -1 -1 -1 -1 -1 -0 0 -0 -0 -1 -1 -2 -1 -1 -1 -0 -0 -0 0 -0 -0 -1 -1 -2 -2
0 -0 -1 -1 -2 -2 -1 -1 -1 -0 -0 -0 -0 -0 -1 -1 -1 -1 -1 -1 -1 -1 -2 -2 -2 -2 -2 -3 -3 -2 -2 -2 -2 -1 -2 -2 -2 -2 -2 -2 -2 -2 -2 -2 -2 -2 -2 -2 -2 -1 0 0 0 -0 -1 -1 -1 -1 -1 -1 -1 -1 -1 -1 -1 -1 -1 -1 -2
-0 -1 -1 -2 -2 -2 -2 -2 -1 -1 -1 -1 -1 -1 -2 -1 -1 -1 -1 -2 -2 -2 -2 -3 -3 -3 -3 -3 -2 -2 -2 -1 -1 -1 -1 -2 -2 -2 -2 -2 -3 -2 -2 -2 -2 -2 -3 -3 -3 -2 -1 -0 -1 -1 -1 -1 -1 -1 -1 -1 -2 -2 -2 -2 -2 -2 -2 -2 -2
-1 -1 -1 -2 -2 -2 -1 -1 -1 -1 -1 -1 -1 -1 -1 -1 -1 -2 -2 -2 -1 -1 -1 -1 -1 -1 -1 -1 -1 -0 -0 -0 -0 -1 -1 -2 -2 -2 -2 -2 -3 -2 -2 -3 -3 -3 -3 -4 -5 -4 -3 -2 -3 -3 -3 -2 -2 -2 -2 -2 -2 -3 -3 -3 -3 -3 -3 -3 -3
-1 -1 -1 -1 -1 -1 -1 -0 -0 0 0 0 0 -0 -0 -0 -1 -1 -0 0 1 1 1 1 1 1 1 0 1 1 0 -0 -1 -1 -1 -2 -2 -2 -2 -2 -3 -3 -2 -2 -2 -3 -3 -4 -6 -6 -6 -5 -5 -5 -5 -5 -5 -4 -4 -4 -4 -4 -4 -4 -4 -4 -4 -4 -5
-1 -1 -1 -1 -1 -1 -0 0 0 1 0 0 -0 -0 -0 -0 0 0 1 1 1 1 1 1 0 -0 -1 -1 -1 -1 -1 -1 -1 -2 -2 -1 -1 -1 -1 -2 -2 -3 -2 -1 -1 -1 -1 -2 -4 -6 -7 -6 -6 -6 -6 -6 -6 -6 -6 -6 -6 -5 -5 -5 -5 -5 -5 -5 -5
-1 -1 -1 -1 -1 -1 -1 -0 -0 -0 -1 -1 -1 -1 -1 -1 -1 -1 -1 -1 -1 -2 -2 -2 -2 -2 -2 -2 -2 -1 -1 -1 -1 -0 0 1 1 1 1 1 0 0 0 2 3 3 3 3 2 -0 -2 -3 -2 -3 -3 -4 -4 -5 -5 -6 -6 -6 -7 -7 -7 -7 -6 -6 -5
-1 -1 -2 -2 -2 -2 -2 -2 -2 -2 -2 -2 -2 -2 -2 -2 -2 -3 -3 -3 -3 -3 -3 -2 -2 -2 -1 0 1 2 2 3 3 3 4 4 4 4 4 4 4 4 4 5 6 6 6 6 6 6 4 3 4 4 4 3 3 2 1 -0 -1 -3 -4 -5 -6 -7 -7 -7 -6
-1 -1 -2 -2 -2 -2 -2 -2 -3 -3 -3 -3 -3 -3 -3 -3 -2 -2 -2 -1 -0 0 1 1 2 2 4 5 6 6 6 7 7 6 6 6 6 6 6 6 6 6 5 5 6 6 5 5 5 5 5 4 5 6 6 7 7 8 7 7 6 5 3 2 0 -2 -3 -4 -5
-1 -1 -1 -1 -2 -2 -1 -1 -2 -2 -2 -2 -1 -1 -1 0 1 2 3 4 4 5 5 6 6 7 7 8 8 8 8 8 7 6 6 5 5 5 4 4 4 3 3 3 3 2 2 2 1 1 -0 -1 -0 1 1 2 3 4 5 6 6 6 6 7 7 5 4 2 1
0 0 0 0 0 0 0 0 1 1 1 1 2 2 4 5 6 6 7 7 7 7 7 7 7 7 7 7 7 6 6 5 4 4 3 3 2 2 1 1 1 1 1 1 0 0 -0 -1 -1 -2 -3 -4 -4 -4 -5 -5 -5 -5 -4 -2 -0 1 2 4 5 6 6 6 5
Height
1435 1435 1435 1436 1436 1437 1437 1437 1437 1437 1437 1437 1437 1437 1437 1437 1437 1437 1437 1437 1437 1437 1437 1437 1436 1436 1436 1435 1435 1435 1433 1432 1432 1432 1432 1432 1431 1431 1432 1432 1433 1434 1435 1436 1437 1437 1438 1439 1439 1439 1438 1439 1440 1440 1440 1441 1441 1441 1441 1442 1442 1442 1442 1443 1444 1445 1445 1445 1446
1435 1435 1435 1435 1436 1436 1436 1437 1437 1437 1437 1437 1437 1437 1436 1436 1436 1436 1436 1436 1436 1436 1436 1435 1435 1435 1434 1434 1434 1433 1432 1431 1431 1430 1431 1431 1430 1430 1430 1430 1430 1431 1432 1433 1434 1435 1436 1436 1437 1436 1436 1437 1437 1438 1438 1439 1439 1439 1439 1440 1440 1440 1440 1441 1442 1442 1443 1443 1443
1435 1435 1435 1435 1436 1436 1436 1436 1437 1437 1437 1437 1436 1436 1436 1436 1435 1435 1435 1435 1434 1434 1434 1434 1433 1433 1433 1433 1433 1432 1432 1431 1430 1430 1429 1429 1429 1429 1430 1430 1430 1430 1431 1431 1432 1432 1433 1434 1434 1435 1435 1436 1436 1436 1437 1437 1438 1438 1438 1438 1438 1438 1438 1438 1439 1440 1441 1441 1441
1436 1436 1436 1436 1436 1436 1436 1437 1437 1437 1436 1436 1436 1436 1435 1435 1435 1435 1434 1434 1433 1433 1433 1432 1432 1432 1432 1432 1432 1431 1430 1430 1430 1429 1428 1427 1428 1428 1428 1429 1429 1430 1430 1431 1431 1431 1432 1432 1433 1433 1434 1435 1435 1435 1435 1435 1436 1436 1436 1436 1437 1437 1437 1437 1438 1438 1438 1438 1439
1436 1436 1436 1436 1436 1436 1436 1437 1437 1436 1436 1436 1436 1435 1435 1435 1434 1434 1434 1433 1433 1432 1432 1432 1431 1431 1431 1431 1431 1430 1429 1429 1428 1428 1427 1427 1427 1427 1427 1428 1428 1428 1429 1429 1430 1430 1431 1431 1432 1432 1433 1433 1434 1434 1434 1433 1433 1433 1433 1433 1433 1434 1435 1435 1436 1436 1436 1436 1437
1437 1437 1437 1437 1437 1437 1437 1437 1437 1437 1437 1436 1436 1435 1435 1434 1434 1434 1433 1432 1432 1432 1432 1431 1431 1431 1431 1430 1429 1428 1428 1427 1427 1427 1426 1426 1426 1427 1427 1427 1426 1427 1427 1428 1428 1428 1429 1430 1430 1430 1430 1430 1431 1431 1431 1431 1430 1430 1430 1430 1431 1432 1432 1432 1433 1433 1434 1434 1434
1439 1439 1438 1438 1438 1438 1437 1437 1437 1437 1437 1437 1436 1435 1435 1434 1434 1433 1433 1432 1432 1431 1431 1431 1430 1430 1430 1429 1428 1427 1427 1427 1426 1425 1425 1425 1425 1425 1425 1424 1424 1425 1426 1426 1427 1427 1427 1428 1428 1428 1428 1427 1427 1425 1425 1425 1425 1426 1427 1429 1429 1430 1430 1430 1430 1431 1431 1431 1431
1441 1441 1440 1440 1440 1439 1438 1437 1437 1437 1437 1437 1436 1436 1435 1434 1434 1433 1433 1432 1432 1431 1431 1430 1430 1430 1429 1428 1427 1427 1427 1426 1425 1424 1423 1423 1423 1423 1423 1423 1423 1423 1424 1425 1426 1426 1426 1426 1426 1426 1426 1425 1425 1425 1425 1425 1424 1425 1426 1427 1428 1429 1429 1429 1428 1428 1428 1427 1427
1442 1442 1442 1442 1441 1440 1439 1439 1438 1437 1437 1437 1437 1436 1436 1435 1434 1433 1433 1432 1432 1432 1431 1430 1430 1429 1428 1427 1427 1427 1427 1426 1425 1424 1423 1423 1422 1422 1422 1422 1422 1423 1423 1424 1424 1424 1424 1424 1424 1424 1423 1423 1423 1422 1422 1422 1422 1423 1423 1423 1422 1422 1422 1423 1424 1424 1425 1425 1425
1444 1444 1444 1443 1442 1441 1441 1440 1439 1438 1438 1437 1437 1437 1436 1435 1434 1434 1433 1433 1432 1431 1431 1430 1429 1428 1427 1427 1427 1427 1427 1426 1425 1423 1423 1422 1422 1421 1421 1422 1422 1422 1422 1422 1422 1423 1423 1423 1423 1422 1422 1421 1421 1421 1421 1421 1421 1421 1421 1420 1420 1420 1420 1419 1418 1418 1419 1420 1421
1445 1445 1445 1444 1444 1443 1442 1441 1440 1439 1438 1438 1437 1437 1436 1435 1434 1434 1434 1433 1432 1430 1430 1429 1428 1428 1427 1428 1428 1427 1427 1426 1424 1424 1423 1422 1422 1422 1422 1422 1422 1422 1421 1421 1421 1422 1422 1422 1421 1421 1420 1420 1419 1419 1419 1419 1419 1419 1418 1418 1418 1418 1417 1417 1417 1417 1417 1416 1416
1447 1447 1446 1446 1445 1444 1443 1442 1441 1440 1439 1439 1438 1437 1436 1435 1434 1434 1433 1432 1431 1430 1430 1430 1430 1430 1430 1430 1430 1428 1427 1425 1424 1423 1423 1422 1422 1422 1422 1422 1422 1421 1421 1421 1421 1421 1421 1421 1420 1419 1419 1418 1418 1418 1417 1417 1417 1417 1416 1416 1416 1415 1415 1415 1414 1415 1415 1415 1415
1448 1447 1447 1447 1446 1445 1444 1443 1442 1442 1441 1440 1439 1438 1436 1435 1434 1433 1432 1432 1431 1432 1432 1432 1432 1432 1432 1432 1430 1429 1427 1425 1424 1423 1423 1423 1422 1422 1422 1422 1422 1421 1421 1421 1421 1421 1420 1419 1419 1418 1418 1417 1417 1417 1416 1416 1415 1415 1414 1414 1413 1413 1413 1413 1413 1413 1413 1413 1413
1449 1448 1447 1447 1447 1446 1445 1445 1444 1443 1442 1441 1440 1438 1437 1435 1434 1434 1434 1433 1433 1433 1433 1434 1434 1433 1433 1432 1431 1429 1428 1426 1425 1425 1424 1423 1423 1422 1422 1422 1422 1422 1422 1421 1421 1420 1419 1419 1418 1418 1417 1417 1417 1416 1416 1415 1415 1413 1412 1412 1412 1412 1412 1412 1412 1412 1412 1412 1411
1449 1449 1448 1448 1447 1447 1446 1445 1445 1444 1443 1442 1440 1439 1438 1437 1436 1436 1436 1435 1435 1435 1435 1435 1435 1434 1433 1432 1431 1430 1429 1428 1427 1426 1425 1424 1423 1422 1422 1422 1422 1422 1422 1421 1420 1419 1419 1418 1418 1417 1417 1417 1416 1416 1415 1415 1414 1413 1412 1412 1412 1411 1411 1411 1411 1411 1411 1411 1410
1450 1449 1449 1448 1447 1447 1446 1446 1445 1444 1443 1442 1442 1440 1439 1439 1438 1438 1437 1437 1436 1436 1436 1436 1436 1435 1433 1432 1432 1430 1429 1428 1427 1427 1426 1425 1424 1423 1422 1422 1422 1422 1421 1421 1420 1419 1419 1418 1418 1417 1417 1417 1416 1416 1415 1414 1414 1413 1413 1412 1412 1411 1411 1410 1410 1410 1410 1410 1410
1451 1450 1450 1449 1448 1447 1447 1446 1446 1445 1444 1443 1442 1442 1441 1440 1440 1439 1438 1438 1438 1437 1437 1437 1436 1435 1434 1432 1432 1431 1430 1429 1428 1427 1427 1426 1425 1425 1424 1423 1423 1422 1422 1421 1420 1419 1418 1418 1418 1417 1417 1417 1416 1415 1415 1414 1414 1414 1413 1412 1412 1411 1411 1410 1410 1409 1409 1409 1409
1452 1451 1451 1450 1449 1448 1448 1447 1446 1446 1445 1444 1443 1442 1442 1441 1440 1440 1439 1439 1439 1438 1438 1437 1436 1435 1434 1433 1432 1431 1430 1429 1428 1428 1427 1427 1427 1426 1425 1425 1424 1424 1423 1422 1421 1420 1419 1418 1418 1417 1417 1416 1416 1415 1415 1414 1414 1413 1413 1412 1412 1412 1411 1410 1410 1409 1409 1409 1409
1453 1452 1452 1451 1450 1449 1449 1448 1447 1446 1446 1445 1444 1443 1442 1442 1441 1440 1440 1440 1439 1439 1439 1438 1437 1436 1435 1433 1432 1431 1430 1429 1429 1429 1428 1428 1427 1427 1426 1426 1425 1425 1424 1423 1422 1422 1421 1420 1419 1418 1417 1417 1416 1415 1415 1414 1414 1413 1412 1412 1412 1412 1411 1410 1410 1409 1409 1409 1408
1455 1454 1453 1452 1451 1451 1450 1449 1448 1447 1446 1446 1445 1444 1443 1442 1442 1441 1440 1440 1440 1440 1439 1438 1437 1436 1435 1434 1433 1432 1431 1430 1429 1429 1429 1428 1428 1427 1427 1426 1426 1425 1425 1424 1423 1423 1422 1421 1420 1419 1418 1417 1417 1416 1415 1414 1413 1413 1412 1412 1412 1411 1411 1410 1409 1409 1409 1409 1408
1456 1455 1454 1453 1452 1452 1451 1450 1449 1448 1447 1447 1446 1445 1444 1443 1442 1442 1442 1441 1441 1440 1439 1438 1437 1436 1435 1434 1434 1433 1432 1431 1431 1430 1430 1429 1428 1428 1427 1427 1427 1427 1426 1426 1425 1424 1423 1422 1421 1420 1419 1418 1417 1416 1416 1415 1414 1413 1412 1412 1412 1412 1411 1410 1409 1409 1409 1409 1408
1457 1456 1455 1455 1454 1453 1452 1452 1451 1450 1449 1448 1447 1447 1446 1445 1445 1444 1443 1443 1442 1441 1440 1439 1438 1437 1437 1436 1436 1435 1435 1434 1433 1432 1431 1431 1430 1429 1429 1429 1429 1428 1428 1427 1427 1426 1425 1424 1423 1421 1420 1419 1418 1417 1416 1416 1415 1414 1413 1412 1412 1412 1411 1411 1410 1409 1409 1409 1409
1458 1457 1457 1456 1455 1454 1453 1453 1452 1451 1451 1450 1450 1449 1448 1447 1447 1446 1445 1444 1444 1443 1442 1441 1440 1440 1439 1439 1438 1438 1437 1436 1435 1434 1433 1433 1432 1431 1431 1431 1430 1430 1429 1429 1428 1427 1427 1426 1425 1423 1422 1421 1420 1418 1417 1417 1416 1415 1414 1413 1413 1412 1412 1411 1410 1409 1409 1409 1409
1459 1458 1457 1457 1456 1455 1455 1454 1453 1452 1452 1452 1451 1450 1449 1448 1448 1447 1446 1446 1445 1444 1443 1442 1442 1442 1441 1440 1439 1439 1438 1437 1436 1435 1435 1434 1433 1432 1432 1432 1431 1430 1430 1429 1429 1428 1427 1426 1425 1424 1424 1422 1422 1421 1419 1418 1417 1416 1416 1415 1414 1413 1412 1412 1411 1410 1410 1410 1410
1460 1459 1458 1458 1457 1456 1456 1455 1454 1453 1453 1452 1452 1451 1450 1449 1449 1448 1447 1447 1446 1445 1444 1443 1443 1442 1442 1441 1440 1439 1438 1437 1437 1436 1435 1434 1434 1433 1432 1432 1431 1430 1430 1430 1429 1428 1427 1427 1426 1425 1424 1423 1422 1422 1421 1420 1419 1418 1417 1416 1415 1415 1414 1413 1412 1412 1412 1412 1412
1461 1460 1459 1458 1458 1457 1456 1456 1455 1454 1453 1453 1452 1451 1451 1450 1449 1448 1448 1447 1446 1446 1445 1444 1443 1442 1442 1441 1440 1439 1438 1438 1437 1436 1435 1435 1434 1433 1432 1432 1431 1431 1431 1430 1430 1429 1428 1427 1426 1425 1424 1423 1422 1422 1421 1420 1420 1420 1419 1418 1417 1416 1415 1415 1414 1414 1414 1413 1412
1462 1461 1460 1459 1458 1458 1457 1456 1456 1455 1454 1453 1452 1452 1451 1451 1450 1449 1448 1447 1447 1446 1445 1444 1443 1443 1442 1441 1440 1439 1438 1438 1437 1436 1436 1435 1434 1433 1432 1432 1431 1431 1431 1430 1430 1429 1428 1427 1426 1425 1424 1423 1423 1422 1421 1421 1420 1420 1419 1418 1417 1417 1416 1416 1415 1415 1414 1414 1413
1462 1462 1461 1460 1459 1458 1457 1457 1456 1455 1454 1454 1453 1452 1452 1451 1450 1449 1448 1448 1447 1446 1445 1444 1444 1443 1442 1441 1440 1439 1439 1438 1437 1436 1436 1435 1434 1433 1432 1432 1431 1431 1430 1430 1429 1428 1428 1427 1426 1425 1424 1424 1423 1422 1421 1420 1420 1419 1419 1418 1417 1417 1416 1416 1415 1415 1414 1413 1412
1463 1462 1461 1460 1459 1459 1458 1457 1457 1456 1455 1454 1453 1453 1452 1451 1451 1450 1449 1448 1447 1446 1445 1444 1444 1443 1442 1441 1440 1440 1439 1438 1437 1436 1436 1435 1434 1433 1432 1432 1431 1430 1430 1429 1428 1427 1427 1427 1426 1425 1424 1424 1423 1422 1421 1420 1420 1419 1418 1418 1417 1417 1416 1415 1415 1414 1413 1412 1412
1463 1462 1462 1461 1460 1459 1458 1457 1457 1456 1455 1455 1454 1453 1452 1452 1451 1450 1449 1448 1447 1446 1445 1445 1444 1443 1442 1441 1440 1440 1439 1438 1437 1436 1435 1434 1434 1433 1432 1431 1430 1430 1429 1429 1428 1427 1426 1426 1425 1425 1424 1423 1422 1422 1421 1420 1419 1418 1418 1417 1416 1416 1415 1414 1414 1413 1412 1412 1411
1464 1463 1462 1461 1460 1459 1459 1458 1457 1457 1456 1455 1454 1453 1452 1452 1451 1450 1449 1448 1447 1447 1446 1445 1444 1443 1442 1441 1441 1440 1439 1438 1437 1436 1435 1434 1433 1432 1432 1431 1430 1430 1429 1429 1428 1427 1426 1425 1424 1424 1423 1423 1422 1421 1420 1419 1419 1418 1417 1416 1416 1415 1414 1413 1412 1412 1411 1410 1409
1464 1463 1462 1461 1460 1460 1459 1458 1457 1457 1456 1455 1454 1453 1452 1452 1451 1450 1449 1448 1447 1447 1446 1445 1444 1443 1442 1441 1440 1440 1439 1438 1437 1437 1435 1434 1433 1432 1432 1431 1430 1430 1429 1429 1428 1427 1426 1425 1424 1423 1423 1422 1421 1420 1419 1419 1418 1417 1416 1415 1415 1414 1413 1412 1411 1410 1410 1409 1408
1464 1463 1462 1461 1460 1460 1459 1458 1457 1457 1456 1455 1454 1453 1452 1452 1451 1450 1449 1448 1447 1447 1446 1445 1444 1443 1442 1441 1440 1440 1439 1438 1437 1437 1436 1435 1434 1433 1432 1432 1431 1430 1430 1429 1428 1427 1426 1425 1424 1423 1422 1422 1421 1420 1419 1418 1417 1416 1415 1414 1413 1413 1412 1411 1410 1409 1408 1408 1407
1464 1463 1462 1461 1460 1459 1459 1458 1457 1457 1456 1455 1454 1453 1452 1452 1451 1450 1449 1448 1447 1447 1446 1445 1444 1443 1442 1442 1441 1440 1439 1438 1437 1437 1436 1435 1434 1433 1432 1432 1431 1431 1430 1429 1428 1427 1426 1425 1423 1422 1422 1421 1420 1419 1418 1417 1416 1415 1414 1413 1412 1412 1411 1410 1409 1408 1408 1407 1406
1464 1463 1462 1461 1460 1460 1459 1458 1457 1457 1456 1455 1454 1453 1452 1452 1451 1450 1449 1448 1447 1447 1446 1445 1444 1443 1443 1442 1441 1440 1439 1438 1437 1437 1436 1435 1434 1433 1433 1432 1431 1431 1430 1430 1429 1428 1427 1425 1423 1422 1421 1420 1419 1418 1417 1416 1415 1414 1413 1413 1412 1411 1410 1409 1408 1408 1407 1406 1405
1464 1463 1462 1461 1461 1460 1459 1458 1457 1457 1456 1455 1454 1453 1452 1452 1451 1450 1449 1448 1448 1447 1446 1445 1444 1444 1443 1442 1441 1440 1440 1439 1438 1437 1436 1435 1435 1434 1433 1432 1432 1431 1430 1430 1429 1428 1427 1426 1424 1422 1421 1419 1418 1417 1417 1416 1415 1414 1413 1412 1411 1410 1410 1409 1408 1407 1407 1406 1405
1464 1463 1462 1461 1461 1460 1459 1458 1457 1457 1456 1455 1454 1453 1452 1452 1451 1450 1449 1449 1448 1447 1446 1445 1444 1443 1443 1442 1441 1441 1440 1439 1438 1437 1436 1436 1435 1434 1433 1432 1432 1431 1430 1430 1429 1428 1427 1426 1424 1422 1420 1419 1418 1417 1416 1415 1414 1414 1413 1412 1411 1410 1409 1408 1408 1407 1406 1405 1405
1464 1463 1462 1461 1460 1460 1459 1458 1457 1457 1456 1455 1454 1453 1452 1452 1451 1450 1449 1448 1447 1446 1445 1445 1444 1443 1442 1442 1441 1441 1440 1439 1438 1437 1437 1436 1435 1434 1433 1432 1432 1431 1430 1430 1429 1428 1427 1426 1424 1422 1421 1419 1418 1417 1416 1415 1414 1413 1412 1412 1411 1410 1409 1408 1407 1407 1406 1405 1405
1463 1462 1462 1461 1460 1459 1459 1458 1457 1456 1455 1454 1453 1452 1452 1451 1450 1449 1448 1447 1447 1446 1445 1444 1443 1442 1442 1442 1441 1440 1440 1439 1438 1437 1437 1436 1435 1435 1434 1433 1432 1431 1430 1430 1429 1428 1427 1426 1425 1423 1422 1420 1419 1417 1417 1415 1414 1413 1412 1412 1411 1410 1409 1408 1407 1407 1406 1405 1405
1463 1462 1462 1461 1460 1459 1458 1457 1456 1455 1454 1453 1452 1452 1451 1450 1449 1448 1448 1447 1446 1446 1445 1444 1443 1443 1442 1442 1441 1441 1440 1440 1439 1438 1437 1437 1436 1435 1434 1433 1433 1432 1431 1430 1429 1428 1427 1426 1425 1424 1423 1421 1420 1419 1418 1417 1415 1414 1413 1412 1411 1409 1408 1407 1407 1406 1405 1405 1404
1463 1462 1461 1460 1459 1458 1457 1457 1456 1455 1454 1453 1452 1451 1451 1450 1450 1449 1448 1448 1447 1446 1446 1445 1445 1444 1443 1443 1442 1442 1441 1440 1440 1439 1438 1438 1437 1436 1435 1434 1433 1432 1432 1431 1430 1429 1428 1427 1426 1425 1424 1422 1421 1420 1419 1417 1416 1415 1414 1412 1411 1410 1409 1407 1407 1406 1405 1404 1403